Flag for Canada Weather past 2 weeks in Halifax, Nova Scotia, Canada

Now
66 °F

Low clouds.


Feels Like: 66 °F
Forecast: 65 / 76 °F
Wind: 14 mph from Southwest

Location: Halifax International Airport

Current Time: Aug 5, 2015 at 5:57:26 AM

Latest Report: Aug 5, 2015 at 5:00 AM


Visibility: 14 mi

Pressure: 29.85 "Hg

Humidity: 94%

Dew point: 64 °F

Location of HalifaxLocation

Historic Weather in Halifax — Graph

°F

Halifax temperature yesterday

Maximum temperature yesterday: 79 °F (at 2:00 PM)
Minimum temperature yesterday: 66 °F (at 10:00 PM)
Average temperature yesterday: 71 °F

Past Weeks' High & Low Weather Summary

 TemperatureHumidityPressure
High82 °F (Aug 1, 4:00 PM)100% (Jul 21, 6:00 AM)30.16 "Hg (Jul 21, 6:00 AM)
Low54 °F (Jul 24, 6:00 AM)39% (Aug 2, 3:00 PM)29.52 "Hg (Jul 22, 6:00 PM)
Average65 °F84%29.87 "Hg
* Reported Jul 21 4:00 AM — Aug 5 4:48 AM, Halifax, Weather by CustomWeather, © 2015

Note: Actual official high and low records may vary slightly from our data, if they occured in-between our weather recording intervals... More about our weather records

Advertising

Halifax weather history for previous 24 hours

 ConditionsComfort  
Time TempWeatherWind HumidityBarometerVisibility
4:48 AM
Wed, Aug 5
64 °FPassing clouds.14 mph94%29.84 "Hg15 mi
4:00 AM66 °FPassing clouds.16 mph88%29.85 "Hg15 mi
3:00 AM64 °FPassing clouds.7 mph94%29.85 "Hg15 mi
2:00 AM66 °FThunderstorms. Overcast.14 mph88%29.86 "Hg15 mi
1:00 AM66 °FThunderstorms. Passing clouds.6 mph94%29.90 "Hg15 mi
12:00 AM66 °FThunderstorms. Mostly cloudy.14 mph94%29.91 "Hg10 mi
11:55 PM
Tue, Aug 4
66 °FThunderstorms. Mostly cloudy.16 mph94%29.91 "Hg10 mi
11:00 PM66 °FMostly cloudy.9 mph94%29.91 "Hg15 mi
10:00 PM66 °FPassing clouds.9 mph88%29.90 "Hg15 mi
9:00 PM68 °FOvercast.14 mph83%29.90 "Hg15 mi
8:00 PM70 °FBroken clouds.12 mph88%29.90 "Hg12 mi
7:00 PM73 °FFog.14 mph89%29.90 "Hg4 mi
6:00 PM75 °FBroken clouds.13 mph83%29.89 "Hg15 mi
5:00 PM75 °FPartly sunny.9 mph83%29.88 "Hg15 mi
4:00 PM77 °FPartly sunny.15 mph79%29.90 "Hg12 mi
3:00 PM79 °FPartly sunny.15 mph74%29.89 "Hg15 mi
2:00 PM79 °FBroken clouds.16 mph74%29.91 "Hg15 mi
1:00 PM73 °FPartly sunny.15 mph89%29.93 "Hg15 mi
12:00 PM72 °FLow clouds.13 mph88%29.95 "Hg15 mi
11:00 AM73 °FLow clouds.14 mph89%29.94 "Hg10 mi
10:00 AM73 °FPartly sunny.9 mph83%29.93 "Hg15 mi
9:00 AM70 °FPartly sunny.14 mph94%29.94 "Hg8 mi
8:00 AM70 °FFog.10 mph94%29.94 "Hg2 mi
7:00 AM68 °FFog.10 mph100%29.94 "Hg1 mi
6:48 AM68 °FDrizzle. Fog.10 mph94%29.94 "Hg1 mi
6:00 AM68 °FDrizzle. Overcast.9 mph94%29.93 "Hg8 mi
5:00 AM68 °FHail. Fog.12 mph100%29.93 "Hg1 mi
Weather by CustomWeather, © 2015

See weather overviewHow to use our weather pages